CSN6446 ZGCD-ZGSZ

Flight info

Callsign CSN6446
Flight time 1h 28m
Altitude 33100
Route AVKOK W194 LLC W138 RUKLI H166 UKBOL W228 APESO W37 OMBEB R473 NOLON W90 POU W7 SAREX
Aircraft B738/M-SADE2E3FGHIJ3J5LM1ORVWY/HB1

Departure

Time 2026-04-27 12:07
Airport Changde Taohuayuan Airport (ZGCD)

Arrival

Time 2026-04-27 13:35
Airport Shenzhen Bao'an International Airport (ZGSZ)
Time Latitude Longitude Altitude Speed Heading
2026-04-27 11:42 28.92132 111.63437 158 ft 0 kts 283°
2026-04-27 11:56 28.92128 111.63457 158 ft 4 kts 283°
2026-04-27 11:57 28.92122 111.63487 158 ft 4 kts 278°
2026-04-27 11:57 28.92123 111.63516 158 ft 4 kts 244°
2026-04-27 11:57 28.92138 111.63533 158 ft 2 kts 193°
2026-04-27 11:57 28.92140 111.63533 158 ft 0 kts 193°
2026-04-27 12:00 28.92123 111.63529 158 ft 7 kts 193°
2026-04-27 12:00 28.92042 111.63507 158 ft 14 kts 193°
2026-04-27 12:01 28.91966 111.63487 158 ft 5 kts 193°
2026-04-27 12:01 28.91942 111.63516 158 ft 8 kts 104°
2026-04-27 12:01 28.91923 111.63610 158 ft 16 kts 103°
2026-04-27 12:01 28.91893 111.63759 158 ft 20 kts 103°
2026-04-27 12:02 28.91863 111.63907 157 ft 14 kts 103°
2026-04-27 12:02 28.91842 111.63952 158 ft 3 kts 180°
2026-04-27 12:02 28.91776 111.63937 158 ft 15 kts 193°
2026-04-27 12:02 28.91644 111.63902 158 ft 26 kts 193°
2026-04-27 12:03 28.91457 111.63852 158 ft 27 kts 193°
2026-04-27 12:03 28.91267 111.63802 158 ft 28 kts 193°
2026-04-27 12:03 28.91085 111.63753 158 ft 26 kts 193°
2026-04-27 12:03 28.90920 111.63710 158 ft 23 kts 193°
2026-04-27 12:04 28.90804 111.63648 158 ft 11 kts 210°
2026-04-27 12:04 28.90774 111.63659 158 ft 5 kts 89°
2026-04-27 12:04 28.90792 111.63676 158 ft 0 kts 13°
2026-04-27 12:06 28.90794 111.63676 158 ft 3 kts 13°
2026-04-27 12:06 28.90892 111.63703 158 ft 36 kts 13°
2026-04-27 12:06 28.91360 111.63827 158 ft 102 kts 13°
2026-04-27 12:06 28.92251 111.64064 160 ft 158 kts 13°
2026-04-27 12:07 28.93373 111.64363 707 ft 168 kts 13°
2026-04-27 12:07 28.94516 111.64605 1482 ft 168 kts
2026-04-27 12:07 28.95628 111.64166 2050 ft 176 kts 322°
2026-04-27 12:07 28.96263 111.62987 2707 ft 180 kts 284°
2026-04-27 12:08 28.96159 111.61577 3364 ft 182 kts 248°
2026-04-27 12:08 28.95332 111.60493 4030 ft 183 kts 212°
2026-04-27 12:08 28.94126 111.60114 4726 ft 180 kts 182°
2026-04-27 12:08 28.93307 111.60215 5220 ft 179 kts 170°
2026-04-27 12:09 28.92069 111.60485 5837 ft 186 kts 169°
2026-04-27 12:09 28.90716 111.60794 6153 ft 210 kts 169°
2026-04-27 12:09 28.89218 111.61143 6537 ft 228 kts 168°
2026-04-27 12:09 28.87118 111.61647 7345 ft 242 kts 168°
2026-04-27 12:10 28.85424 111.62118 7774 ft 259 kts 162°
2026-04-27 12:10 28.84285 111.62651 8216 ft 264 kts 155°
2026-04-27 12:10 28.82681 111.63658 8922 ft 269 kts 150°
2026-04-27 12:10 28.81064 111.64833 9644 ft 274 kts 147°
2026-04-27 12:11 28.79469 111.66054 10363 ft 279 kts 148°
2026-04-27 12:11 28.77854 111.67289 11124 ft 281 kts 148°
2026-04-27 12:11 28.76208 111.68546 11752 ft 289 kts 149°
2026-04-27 12:11 28.74481 111.69858 12124 ft 308 kts 149°
2026-04-27 12:12 28.72640 111.71254 12398 ft 328 kts 149°
2026-04-27 12:12 28.70686 111.72734 12654 ft 347 kts 150°
2026-04-27 12:12 28.68654 111.74271 12967 ft 362 kts 150°
2026-04-27 12:12 28.66526 111.75876 13489 ft 370 kts 149°
2026-04-27 12:13 28.64338 111.77533 14118 ft 376 kts 149°
2026-04-27 12:13 28.62180 111.79184 14692 ft 382 kts 149°
2026-04-27 12:13 28.59955 111.80877 15328 ft 386 kts 149°
2026-04-27 12:13 28.57709 111.82577 15953 ft 391 kts 149°
2026-04-27 12:14 28.55431 111.84297 16558 ft 395 kts 149°
2026-04-27 12:14 28.53132 111.86031 17135 ft 399 kts 149°
2026-04-27 12:14 28.50801 111.87787 17690 ft 404 kts 149°
2026-04-27 12:14 28.48447 111.89558 18247 ft 407 kts 149°
2026-04-27 12:15 28.46076 111.91342 18782 ft 411 kts 149°
2026-04-27 12:15 28.43678 111.93145 19315 ft 415 kts 149°
2026-04-27 12:15 28.41263 111.94961 19830 ft 418 kts 149°
2026-04-27 12:15 28.38825 111.96792 20314 ft 422 kts 149°
2026-04-27 12:16 28.36363 111.98646 20795 ft 426 kts 149°
2026-04-27 12:16 28.33886 112.00509 21264 ft 429 kts 149°
2026-04-27 12:16 28.31394 112.02396 21735 ft 432 kts 149°
2026-04-27 12:16 28.28886 112.04287 22173 ft 435 kts 149°
2026-04-27 12:17 28.26352 112.06192 22606 ft 438 kts 148°
2026-04-27 12:17 28.23808 112.08102 23011 ft 441 kts 148°
2026-04-27 12:17 28.21239 112.10029 23408 ft 444 kts 148°
2026-04-27 12:17 28.18659 112.11961 23841 ft 446 kts 148°
2026-04-27 12:18 28.16066 112.13903 24214 ft 449 kts 148°
2026-04-27 12:18 28.13452 112.15860 24566 ft 452 kts 148°
2026-04-27 12:18 28.10365 112.18186 25033 ft 454 kts 147°
2026-04-27 12:18 28.07906 112.20434 25421 ft 458 kts 139°
2026-04-27 12:19 28.05687 112.23050 25742 ft 463 kts 132°
2026-04-27 12:19 28.03717 112.25957 26050 ft 467 kts 126°
2026-04-27 12:19 28.01951 112.29057 26385 ft 470 kts 124°
2026-04-27 12:19 28.00345 112.32297 26673 ft 475 kts 116°
2026-04-27 12:20 27.99179 112.35805 27020 ft 478 kts 107°
2026-04-27 12:20 27.98477 112.39486 27355 ft 481 kts 100°
2026-04-27 12:20 27.98082 112.43261 27628 ft 485 kts 96°
2026-04-27 12:20 27.97840 112.47077 27883 ft 488 kts 94°
2026-04-27 12:21 27.97638 112.50816 28148 ft 490 kts 95°
2026-04-27 12:21 27.97400 112.54877 28500 ft 491 kts 95°
2026-04-27 12:21 27.97164 112.58729 28904 ft 490 kts 95°
2026-04-27 12:21 27.96943 112.62575 29299 ft 490 kts 95°
2026-04-27 12:22 27.96723 112.66415 29694 ft 489 kts 95°
2026-04-27 12:22 27.96486 112.70254 30066 ft 489 kts 95°
2026-04-27 12:22 27.96241 112.74083 30476 ft 488 kts 96°
2026-04-27 12:22 27.95994 112.77898 30905 ft 487 kts 96°
2026-04-27 12:23 27.95745 112.81716 31285 ft 486 kts 96°
2026-04-27 12:23 27.95496 112.85525 31705 ft 485 kts 96°
2026-04-27 12:23 27.95247 112.89319 32131 ft 483 kts 96°
2026-04-27 12:23 27.95015 112.93117 32464 ft 484 kts 94°
2026-04-27 12:24 27.95005 112.96925 32844 ft 485 kts 89°
2026-04-27 12:24 27.95291 113.00739 32966 ft 488 kts 84°
2026-04-27 12:24 27.95756 113.04490 32996 ft 488 kts 82°
2026-04-27 12:25 27.96794 113.12047 33004 ft 483 kts 82°
2026-04-27 12:25 27.97774 113.19556 33006 ft 483 kts 82°
2026-04-27 12:26 27.98726 113.27070 33005 ft 482 kts 83°
2026-04-27 12:26 27.99661 113.34577 33005 ft 482 kts 84°
2026-04-27 12:26 27.99654 113.38350 32998 ft 479 kts 99°
2026-04-27 12:27 27.98831 113.41977 33002 ft 475 kts 114°
2026-04-27 12:27 27.97252 113.45228 33005 ft 470 kts 129°
2026-04-27 12:27 27.95845 113.47068 33006 ft 466 kts 139°
2026-04-27 12:27 27.92414 113.49978 33010 ft 459 kts 153°
2026-04-27 12:28 27.90567 113.51130 33009 ft 457 kts 156°
2026-04-27 12:28 27.84889 113.54332 33007 ft 456 kts 156°
2026-04-27 12:29 27.79265 113.57679 33007 ft 457 kts 156°
2026-04-27 12:29 27.73656 113.61061 33044 ft 459 kts 156°
2026-04-27 12:29 27.70831 113.62766 33268 ft 462 kts 156°
2026-04-27 12:30 27.67988 113.64442 33654 ft 458 kts 159°
2026-04-27 12:30 27.65026 113.65696 33922 ft 453 kts 168°
2026-04-27 12:30 27.61956 113.66400 33992 ft 449 kts 177°
2026-04-27 12:31 27.55767 113.66615 34006 ft 442 kts 185°
2026-04-27 12:31 27.49617 113.66417 34008 ft 442 kts 185°
2026-04-27 12:32 27.43469 113.66261 34007 ft 442 kts 185°
2026-04-27 12:32 27.37325 113.66120 34007 ft 442 kts 185°
2026-04-27 12:33 27.31179 113.65983 34007 ft 442 kts 185°
2026-04-27 12:33 27.24913 113.65844 34009 ft 441 kts 185°
2026-04-27 12:34 27.18762 113.65948 34009 ft 444 kts 179°
2026-04-27 12:34 27.12648 113.67201 34009 ft 449 kts 170°
2026-04-27 12:35 27.06641 113.69004 34009 ft 450 kts 169°
2026-04-27 12:35 27.00600 113.70813 34010 ft 449 kts 169°
2026-04-27 12:36 26.94569 113.72597 34010 ft 449 kts 169°
2026-04-27 12:36 26.88522 113.74377 34010 ft 449 kts 169°
2026-04-27 12:37 26.82472 113.76156 34011 ft 449 kts 169°
2026-04-27 12:37 26.76434 113.77929 34011 ft 449 kts 169°
2026-04-27 12:38 26.70391 113.79767 34011 ft 450 kts 168°
2026-04-27 12:38 26.64369 113.81671 34011 ft 450 kts 168°
2026-04-27 12:39 26.58341 113.83560 34012 ft 450 kts 168°
2026-04-27 12:39 26.52322 113.85443 34012 ft 450 kts 168°
2026-04-27 12:40 26.46287 113.87274 34012 ft 449 kts 169°
2026-04-27 12:40 26.40221 113.89005 34012 ft 450 kts 169°
2026-04-27 12:41 26.34170 113.90745 34013 ft 450 kts 169°
2026-04-27 12:41 26.28114 113.92502 34013 ft 450 kts 169°
2026-04-27 12:42 26.22048 113.94252 34013 ft 450 kts 169°
2026-04-27 12:42 26.15993 113.95994 34013 ft 450 kts 169°
2026-04-27 12:43 26.09931 113.97738 34013 ft 450 kts 169°
2026-04-27 12:43 26.03872 113.99478 34014 ft 450 kts 169°
2026-04-27 12:44 25.97819 114.01246 34014 ft 450 kts 169°
2026-04-27 12:44 25.91775 114.03038 34014 ft 450 kts 169°
2026-04-27 12:45 25.85723 114.04829 34014 ft 450 kts 169°
2026-04-27 12:45 25.79677 114.06615 34014 ft 450 kts 169°
2026-04-27 12:46 25.73634 114.08397 34015 ft 450 kts 169°
2026-04-27 12:46 25.67585 114.10183 34014 ft 450 kts 169°
2026-04-27 12:47 25.61526 114.11976 34020 ft 451 kts 169°
2026-04-27 12:47 25.55472 114.13761 34020 ft 450 kts 169°
2026-04-27 12:48 25.49454 114.15532 34021 ft 451 kts 169°
2026-04-27 12:48 25.43399 114.17312 34021 ft 451 kts 169°
2026-04-27 12:49 25.37335 114.19098 34021 ft 451 kts 169°
2026-04-27 12:49 25.31278 114.20876 34021 ft 451 kts 169°
2026-04-27 12:50 25.25202 114.22654 34021 ft 451 kts 168°
2026-04-27 12:50 25.19127 114.24431 34021 ft 451 kts 168°
2026-04-27 12:51 25.13051 114.26143 34020 ft 450 kts 173°
2026-04-27 12:51 25.06867 114.26445 34023 ft 443 kts 188°
2026-04-27 12:52 25.00808 114.25395 34022 ft 441 kts 194°
2026-04-27 12:52 24.94785 114.24076 34021 ft 441 kts 194°
2026-04-27 12:53 24.85755 114.22136 34020 ft 441 kts 193°
2026-04-27 12:53 24.79719 114.20848 34024 ft 442 kts 193°
2026-04-27 12:54 24.73684 114.19559 34023 ft 442 kts 193°
2026-04-27 12:54 24.67684 114.18278 34023 ft 442 kts 193°
2026-04-27 12:55 24.61642 114.16988 34022 ft 442 kts 193°
2026-04-27 12:55 24.55591 114.15702 34021 ft 443 kts 193°
2026-04-27 12:56 24.49549 114.14421 34021 ft 443 kts 193°
2026-04-27 12:56 24.43491 114.13137 34021 ft 443 kts 193°
2026-04-27 12:57 24.37467 114.11734 34019 ft 442 kts 198°
2026-04-27 12:57 24.31820 114.09135 34018 ft 440 kts 208°
2026-04-27 12:58 24.26650 114.05603 34017 ft 438 kts 217°
2026-04-27 12:58 24.21509 114.01997 34014 ft 440 kts 213°
2026-04-27 12:59 24.16330 113.98449 34014 ft 439 kts 213°
2026-04-27 12:59 24.11210 113.94794 34013 ft 438 kts 218°
2026-04-27 13:00 24.06567 113.90481 34013 ft 438 kts 223°
2026-04-27 13:00 24.02043 113.86017 34012 ft 438 kts 223°
2026-04-27 13:01 23.97512 113.81564 34012 ft 438 kts 223°
2026-04-27 13:01 23.92979 113.77117 34011 ft 438 kts 223°
2026-04-27 13:02 23.88442 113.72671 34011 ft 438 kts 223°
2026-04-27 13:02 23.83915 113.68227 33986 ft 438 kts 223°
2026-04-27 13:03 23.81653 113.66001 33594 ft 437 kts 223°
2026-04-27 13:03 23.79399 113.63789 33076 ft 433 kts 223°
2026-04-27 13:03 23.77196 113.61626 32567 ft 430 kts 223°
2026-04-27 13:03 23.74980 113.59444 32056 ft 427 kts 223°
2026-04-27 13:04 23.72780 113.57289 31552 ft 424 kts 223°
2026-04-27 13:04 23.70593 113.55152 31053 ft 421 kts 223°
2026-04-27 13:04 23.68411 113.53023 30558 ft 418 kts 223°
2026-04-27 13:04 23.66251 113.50917 30070 ft 415 kts 223°
2026-04-27 13:05 23.64103 113.48824 29591 ft 413 kts 223°
2026-04-27 13:05 23.61973 113.46749 29120 ft 410 kts 223°
2026-04-27 13:05 23.59850 113.44683 28642 ft 407 kts 223°
2026-04-27 13:05 23.57745 113.42633 28167 ft 405 kts 223°
2026-04-27 13:06 23.55618 113.40626 27691 ft 403 kts 219°
2026-04-27 13:06 23.53265 113.38903 27212 ft 403 kts 211°
2026-04-27 13:06 23.50783 113.37576 26740 ft 402 kts 205°
2026-04-27 13:06 23.48186 113.36464 26262 ft 401 kts 202°
2026-04-27 13:07 23.45550 113.35466 25786 ft 400 kts 201°
2026-04-27 13:07 23.42925 113.34495 25312 ft 398 kts 201°
2026-04-27 13:07 23.40306 113.33521 24838 ft 396 kts 202°
2026-04-27 13:07 23.37699 113.32546 24365 ft 395 kts 202°
2026-04-27 13:08 23.35114 113.31578 23895 ft 393 kts 202°
2026-04-27 13:08 23.32537 113.30610 23425 ft 391 kts 202°
2026-04-27 13:08 23.29970 113.29638 22955 ft 390 kts 202°
2026-04-27 13:08 23.27415 113.28675 22486 ft 388 kts 202°
2026-04-27 13:09 23.24865 113.27716 22015 ft 387 kts 202°
2026-04-27 13:09 23.22323 113.26761 21547 ft 385 kts 202°
2026-04-27 13:09 23.20618 113.26121 21232 ft 384 kts 202°
2026-04-27 13:09 23.18135 113.25190 20773 ft 382 kts 202°
2026-04-27 13:10 23.15620 113.24248 20307 ft 380 kts 202°
2026-04-27 13:10 23.13131 113.23315 19848 ft 379 kts 202°
2026-04-27 13:10 23.10642 113.22383 19386 ft 377 kts 202°
2026-04-27 13:10 23.08169 113.21458 18926 ft 375 kts 201°
2026-04-27 13:11 23.05634 113.20818 18462 ft 379 kts 188°
2026-04-27 13:11 23.02994 113.21036 18015 ft 385 kts 170°
2026-04-27 13:11 23.00538 113.22167 17870 ft 382 kts 152°
2026-04-27 13:11 22.98559 113.24043 17802 ft 378 kts 133°
2026-04-27 13:12 22.97222 113.26471 17680 ft 376 kts 115°
2026-04-27 13:12 22.96489 113.29186 17441 ft 373 kts 107°
2026-04-27 13:12 22.95780 113.31884 17095 ft 370 kts 111°
2026-04-27 13:12 22.94850 113.34471 16780 ft 366 kts 117°
2026-04-27 13:13 22.93709 113.36918 16469 ft 362 kts 121°
2026-04-27 13:13 22.92509 113.39307 16163 ft 360 kts 121°
2026-04-27 13:13 22.91342 113.41705 15847 ft 358 kts 121°
2026-04-27 13:13 22.90196 113.44089 15548 ft 355 kts 121°
2026-04-27 13:14 22.88814 113.46278 15219 ft 348 kts 137°
2026-04-27 13:14 22.86911 113.47807 14924 ft 338 kts 157°
2026-04-27 13:14 22.84697 113.48516 14606 ft 328 kts 177°
2026-04-27 13:14 22.82462 113.48341 14276 ft 321 kts 196°
2026-04-27 13:15 22.80299 113.47754 13952 ft 321 kts 193°
2026-04-27 13:15 22.78084 113.47457 13661 ft 320 kts 187°
2026-04-27 13:15 22.75881 113.47331 13521 ft 314 kts 184°
2026-04-27 13:15 22.73755 113.47306 13455 ft 305 kts 184°
2026-04-27 13:16 22.71670 113.47173 13396 ft 296 kts 187°
2026-04-27 13:16 22.69646 113.46987 13347 ft 288 kts 187°
2026-04-27 13:16 22.67670 113.46822 13258 ft 281 kts 187°
2026-04-27 13:16 22.65731 113.46672 13073 ft 279 kts 187°
2026-04-27 13:17 22.63792 113.46636 12825 ft 281 kts 175°
2026-04-27 13:17 22.61939 113.47350 12592 ft 287 kts 151°
2026-04-27 13:17 22.60488 113.48838 12370 ft 293 kts 128°
2026-04-27 13:17 22.59684 113.50865 12157 ft 297 kts 104°
2026-04-27 13:18 22.59785 113.53073 12053 ft 296 kts 73°
2026-04-27 13:18 22.60794 113.54976 12013 ft 290 kts 50°
2026-04-27 13:18 22.62365 113.56264 11953 ft 282 kts 24°
2026-04-27 13:18 22.64214 113.56811 11917 ft 272 kts
2026-04-27 13:19 22.66079 113.56894 11846 ft 265 kts 358°
2026-04-27 13:19 22.67912 113.56875 11693 ft 264 kts 358°
2026-04-27 13:19 22.69747 113.56906 11535 ft 263 kts 359°
2026-04-27 13:19 22.71572 113.56955 11351 ft 263 kts 359°
2026-04-27 13:20 22.73403 113.57004 11176 ft 263 kts 359°
2026-04-27 13:20 22.75225 113.57039 11004 ft 262 kts 360°
2026-04-27 13:20 22.77046 113.57104 10842 ft 261 kts 360°
2026-04-27 13:20 22.78864 113.57164 10664 ft 261 kts 360°
2026-04-27 13:21 22.80681 113.57220 10500 ft 261 kts
2026-04-27 13:21 22.82472 113.57478 10299 ft 263 kts 20°
2026-04-27 13:21 22.83923 113.58634 10101 ft 260 kts 53°
2026-04-27 13:21 22.84802 113.60315 9983 ft 255 kts 67°
2026-04-27 13:22 22.85510 113.62075 9815 ft 255 kts 67°
2026-04-27 13:22 22.86279 113.63804 9648 ft 255 kts 65°
2026-04-27 13:22 22.86985 113.65547 9476 ft 251 kts 79°
2026-04-27 13:22 22.86888 113.67354 9277 ft 241 kts 115°
2026-04-27 13:23 22.85929 113.68785 9139 ft 233 kts 140°
2026-04-27 13:23 22.84603 113.69804 8976 ft 230 kts 152°
2026-04-27 13:23 22.83197 113.70587 8811 ft 230 kts 156°
2026-04-27 13:23 22.81751 113.71328 8656 ft 229 kts 156°
2026-04-27 13:24 22.80320 113.72089 8504 ft 229 kts 155°
2026-04-27 13:24 22.78885 113.72868 8348 ft 228 kts 155°
2026-04-27 13:24 22.77488 113.73630 8201 ft 227 kts 155°
2026-04-27 13:24 22.76082 113.74397 8048 ft 227 kts 155°
2026-04-27 13:25 22.74675 113.75170 7898 ft 226 kts 155°
2026-04-27 13:25 22.73279 113.75937 7748 ft 225 kts 155°
2026-04-27 13:25 22.71881 113.76704 7587 ft 225 kts 155°
2026-04-27 13:25 22.70520 113.77451 7445 ft 225 kts 155°
2026-04-27 13:26 22.69174 113.78505 7266 ft 228 kts 130°
2026-04-27 13:26 22.68575 113.80092 7102 ft 234 kts 98°
2026-04-27 13:26 22.68850 113.81823 6909 ft 237 kts 67°
2026-04-27 13:26 22.69921 113.83177 6596 ft 242 kts 36°
2026-04-27 13:27 22.71502 113.83766 6292 ft 244 kts
2026-04-27 13:27 22.73142 113.83459 6036 ft 242 kts 340°
2026-04-27 13:27 22.74673 113.82732 5780 ft 240 kts 334°
2026-04-27 13:27 22.76173 113.81934 5494 ft 239 kts 333°
2026-04-27 13:28 22.77642 113.81142 5088 ft 235 kts 333°
2026-04-27 13:28 22.79101 113.80349 4584 ft 235 kts 333°
2026-04-27 13:28 22.80554 113.79552 4124 ft 233 kts 333°
2026-04-27 13:28 22.81994 113.78748 3655 ft 232 kts 333°
2026-04-27 13:29 22.83437 113.77932 3333 ft 234 kts 333°
2026-04-27 13:29 22.84814 113.77039 3118 ft 230 kts 319°
2026-04-27 13:29 22.85683 113.75608 2817 ft 229 kts 286°
2026-04-27 13:29 22.85710 113.73924 2521 ft 224 kts 253°
2026-04-27 13:30 22.84907 113.72543 2324 ft 217 kts 219°
2026-04-27 13:30 22.83568 113.71885 2315 ft 211 kts 191°
2026-04-27 13:30 22.82115 113.71676 2339 ft 211 kts 184°
2026-04-27 13:30 22.80655 113.71673 2300 ft 212 kts 165°
2026-04-27 13:31 22.79349 113.72347 2332 ft 202 kts 148°
2026-04-27 13:31 22.78178 113.73130 2345 ft 195 kts 148°
2026-04-27 13:31 22.77029 113.73840 2307 ft 183 kts 150°
2026-04-27 13:31 22.75938 113.74463 2272 ft 173 kts 151°
2026-04-27 13:32 22.74887 113.75049 2090 ft 167 kts 151°
2026-04-27 13:32 22.73866 113.75613 1874 ft 162 kts 151°
2026-04-27 13:32 22.72893 113.76148 1671 ft 152 kts 151°
2026-04-27 13:32 22.71967 113.76657 1479 ft 147 kts 151°
2026-04-27 13:33 22.71057 113.77157 1277 ft 148 kts 151°
2026-04-27 13:33 22.70148 113.77657 1088 ft 146 kts 150°
2026-04-27 13:33 22.69242 113.78160 874 ft 146 kts 151°
2026-04-27 13:33 22.68344 113.78652 699 ft 144 kts 151°
2026-04-27 13:34 22.67446 113.79141 505 ft 144 kts 152°
2026-04-27 13:34 22.66551 113.79630 323 ft 144 kts 151°
2026-04-27 13:34 22.65663 113.80116 137 ft 142 kts 151°
2026-04-27 13:34 22.64795 113.80590 24 ft 135 kts 150°
2026-04-27 13:35 22.64096 113.80973 21 ft 84 kts 153°
2026-04-27 13:35 22.63708 113.81186 21 ft 45 kts 153°
2026-04-27 13:35 22.63498 113.81256 21 ft 27 kts 176°
2026-04-27 13:35 22.63356 113.81251 21 ft 16 kts 183°
2026-04-27 13:36 22.63289 113.81247 21 ft 8 kts 183°
2026-04-27 13:36 22.63247 113.81244 21 ft 3 kts 183°
2026-04-27 13:36 22.63244 113.81228 21 ft 4 kts 306°
2026-04-27 13:36 22.63284 113.81201 21 ft 6 kts 336°
2026-04-27 13:37 22.63299 113.81184 21 ft 3 kts 274°
2026-04-27 13:37 22.63294 113.81161 21 ft 3 kts 245°
2026-04-27 13:37 22.63292 113.81156 21 ft 0 kts 243°
2026-04-27 13:38 22.63291 113.81156 21 ft 0 kts 243°
2026-04-27 13:40 22.63291 113.81155 21 ft 2 kts 243°
2026-04-27 13:40 22.63281 113.81112 21 ft 6 kts 270°
2026-04-27 13:40 22.63282 113.81075 21 ft 7 kts 266°
2026-04-27 13:40 22.63263 113.81019 21 ft 10 kts 243°
2026-04-27 13:41 22.63233 113.80955 21 ft 9 kts 243°
2026-04-27 13:41 22.63205 113.80894 21 ft 9 kts 242°
2026-04-27 13:41 22.63185 113.80833 21 ft 9 kts 278°
2026-04-27 13:41 22.63221 113.80785 21 ft 8 kts 308°
2026-04-27 13:42 22.63252 113.80735 21 ft 8 kts 303°
2026-04-27 13:42 22.63267 113.80711 21 ft 1 kts 303°
2026-04-27 13:42 22.63271 113.80704 21 ft 1 kts 303°
2026-04-27 13:42 22.63273 113.80701 21 ft 0 kts 303°